TimeCDT,TemperatureF,Dew PointF,Humidity,Sea Level PressureIn,VisibilityMPH,Wind Direction,Wind SpeedMPH,Gust SpeedMPH,PrecipitationIn,Events,Conditions,WindDirDegrees,DateUTC
12:18 AM,37.4,35.6,93,30.22,10.0,NW,16.1,21.9,0.01,Rain,Light Rain,320,2012-10-04 05:18:00
12:52 AM,37.0,34.0,89,30.27,9.0,NNW,17.3,25.3,0.03,Rain,Light Rain,330,2012-10-04 05:52:00
1:05 AM,37.4,35.6,93,30.23,10.0,NNW,18.4,25.3,0.00,Rain,Light Rain,330,2012-10-04 06:05:00
1:16 AM,37.4,35.6,93,30.23,10.0,NNW,18.4,24.2,0.01,Rain,Light Rain,330,2012-10-04 06:16:00
1:25 AM,37.4,35.6,93,30.23,10.0,NNW,16.1,24.2,0.01,Rain,Light Rain,330,2012-10-04 06:25:00
1:52 AM,37.0,34.0,89,30.27,10.0,NNW,17.3,21.9,0.03,Rain,Light Rain,330,2012-10-04 06:52:00
2:32 AM,37.4,33.8,87,30.24,10.0,NNW,13.8,24.2,0.01,Rain,Light Rain,330,2012-10-04 07:32:00
2:45 AM,37.4,33.8,87,30.25,10.0,NW,13.8,-,0.01,Rain,Light Rain,320,2012-10-04 07:45:00
2:52 AM,37.0,34.0,89,30.29,10.0,NNW,16.1,-,0.01,Rain,Light Rain,330,2012-10-04 07:52:00
3:50 AM,37.4,33.8,87,30.24,10.0,NNW,15.0,23.0,0.00,Rain,Light Rain,330,2012-10-04 08:50:00
3:52 AM,37.0,34.0,89,30.29,10.0,NNW,13.8,23.0,0.00,Rain,Light Rain,330,2012-10-04 08:52:00
4:06 AM,37.4,33.8,87,30.25,10.0,NNW,13.8,-,0.00,Rain,Light Rain,330,2012-10-04 09:06:00
4:18 AM,37.4,33.8,87,30.25,10.0,NNW,15.0,26.5,0.00,,Overcast,330,2012-10-04 09:18:00
4:52 AM,37.0,33.1,86,30.31,10.0,NNW,18.4,23.0,0.00,,Overcast,340,2012-10-04 09:52:00
5:52 AM,37.0,32.0,82,30.31,10.0,NNW,19.6,29.9,N/A,,Overcast,340,2012-10-04 10:52:00
6:52 AM,37.0,32.0,82,30.33,10.0,NNW,16.1,28.8,N/A,,Overcast,340,2012-10-04 11:52:00
7:52 AM,37.0,30.9,79,30.34,10.0,NNW,12.7,24.2,N/A,,Overcast,330,2012-10-04 12:52:00
8:52 AM,37.0,30.0,76,30.35,10.0,North,20.7,25.3,N/A,,Overcast,350,2012-10-04 13:52:00
9:52 AM,37.0,30.9,79,30.36,10.0,NW,13.8,-,N/A,,Overcast,320,2012-10-04 14:52:00
10:52 AM,37.9,28.9,70,30.37,10.0,NNW,19.6,34.5,N/A,,Overcast,330,2012-10-04 15:52:00
11:52 AM,39.0,28.9,67,30.37,10.0,NW,19.6,27.6,N/A,,Overcast,310,2012-10-04 16:52:00
12:52 PM,41.0,28.9,62,30.37,10.0,NNW,16.1,27.6,N/A,,Overcast,330,2012-10-04 17:52:00
1:52 PM,42.1,28.9,60,30.36,10.0,NW,19.6,27.6,N/A,,Overcast,320,2012-10-04 18:52:00
2:52 PM,42.1,28.9,60,30.35,10.0,NW,17.3,26.5,N/A,,Overcast,320,2012-10-04 19:52:00
3:52 PM,42.1,28.0,58,30.35,10.0,WNW,18.4,25.3,N/A,,Overcast,300,2012-10-04 20:52:00
4:52 PM,41.0,27.0,57,30.37,10.0,NW,18.4,26.5,N/A,,Overcast,310,2012-10-04 21:52:00
5:52 PM,39.9,27.0,60,30.38,10.0,NW,15.0,23.0,N/A,,Overcast,310,2012-10-04 22:52:00
6:52 PM,39.9,25.0,55,30.38,10.0,NW,15.0,23.0,N/A,,Overcast,320,2012-10-04 23:52:00
7:52 PM,37.4,26.6,65,30.33,10.0,NW,15.0,21.9,N/A,,Mostly Cloudy,320,2012-10-05 00:52:00
8:52 PM,37.0,26.1,65,30.39,10.0,WNW,11.5,-,N/A,,Partly Cloudy,290,2012-10-05 01:52:00
9:52 PM,36.0,27.0,70,30.39,10.0,WNW,10.4,-,N/A,,Mostly Cloudy,290,2012-10-05 02:52:00
10:52 PM,36.0,26.1,67,30.38,10.0,WNW,8.1,-,N/A,,Overcast,300,2012-10-05 03:52:00
11:52 PM,34.0,25.0,70,30.38,10.0,West,9.2,-,N/A,,Clear,280,2012-10-05 04:52:00